Location: Allaines
(49.9632°N, 2.9458°E)
Time: 23:54:24
(UTC+00:00)

ATLAS 5 CENTAUR R/B - Pass Details

Date: 09 April 2020
Orbit: 543 x 1116 km, 63.4° (Epoch: 01 May)

Event Time Altitude Azimuth Distance (km) Brightness Sun altitude
Rises 19:58:44 0° 223° (SW) 2,740 5.1 -13.5°
Reaches altitude 10° 20:00:50 10° 225° (SW) 1,884 4.2 -13.8°
Maximum altitude 20:05:02 84° 313° (NW) 632 1.6 -14.4°
Drops below altitude 10° 20:09:52 10° 42° (NE) 2,151 4.2 -15.0°
Sets 20:12:24 0° 44° (NE) 3,166 5.1 -15.4°
